time, Switch, Flow(0), Analog(2)
yyyy/mm/dd HH:MM:SS.fff, True=FILTERED|False=TOTAL, L/min, V
2023/06/10 10:00:02.504, True, 4.643, 0.139239
2023/06/10 10:00:03.008, True, 4.643, 0.141299
2023/06/10 10:00:03.504, True, 4.382, 0.138399
2023/06/10 10:00:04.008, True, 3.977, 0.140612
2023/06/10 10:00:04.512, True, 2.653, 0.139544
2023/06/10 10:00:05.007, True, 1.348, 0.139620
2023/06/10 10:00:05.512, True, 0.994, 0.139773
2023/06/10 10:00:06.016, True, 0.663, 0.140688
2023/06/10 10:00:06.512, True, 1.011, 0.138705
2023/06/10 10:00:07.016, True, 0.663, 0.140688
2023/06/10 10:00:07.520, True, 0.663, 0.140459
2023/06/10 10:00:08.016, True, 1.012, 0.138628
2023/06/10 10:00:08.519, True, 0.663, 0.140002
2023/06/10 10:00:09.024, True, 0.663, 0.141375
2023/06/10 10:00:09.519, True, 0.675, 0.138705
2023/06/10 10:00:10.024, True, 0.993, 0.139010
2023/06/10 10:00:10.528, True, 0.663, 0.140993
2023/06/10 10:00:11.024, True, 0.674, 0.140154
2023/06/10 10:00:11.528, True, 0.995, 0.140536
2023/06/10 10:00:12.032, True, 0.663, 0.139315
2023/06/10 10:00:12.528, True, 0.674, 0.139086
2023/06/10 10:00:13.032, True, 0.995, 0.141527
2023/06/10 10:00:13.535, True, 0.663, 0.140764
2023/06/10 10:00:14.032, True, 0.674, 0.137636
2023/06/10 10:00:14.536, True, 0.663, 0.137789
2023/06/10 10:00:15.039, True, 0.995, 0.140841
2023/06/10 10:00:15.536, True, 0.674, 0.139773
2023/06/10 10:00:16.039, True, 0.664, 0.141070
2023/06/10 10:00:16.544, True, 0.662, 0.139925
2023/06/10 10:00:17.040, True, 1.012, 0.138628
2023/06/10 10:00:17.544, True, 0.663, 0.139696
2023/06/10 10:00:18.048, True, 0.663, 0.139773
2023/06/10 10:00:18.544, True, 0.674, 0.140917
2023/06/10 10:00:19.048, True, 0.995, 0.140612
2023/06/10 10:00:19.552, True, 0.663, 0.141146
2023/06/10 10:00:20.048, True, 0.674, 0.138323
2023/06/10 10:00:20.552, True, 0.663, 0.141222
2023/06/10 10:00:21.056, True, 0.995, 0.140764
2023/06/10 10:00:21.559, True, 0.663, 0.139391
2023/06/10 10:00:22.056, True, 0.674, 0.139544
2023/06/10 10:00:22.559, True, 0.995, 0.138094
2023/06/10 10:00:23.063, True, 0.663, 0.138628
2023/06/10 10:00:23.568, True, 0.663, 0.142061
2023/06/10 10:00:24.064, True, 0.674, 0.140307
2023/06/10 10:00:24.567, True, 0.663, 0.144961
2023/06/10 10:00:25.072, True, 0.995, 0.140002
2023/06/10 10:00:25.567, True, 0.674, 0.138781
2023/06/10 10:00:26.072, True, 0.663, 0.140154
2023/06/10 10:00:26.576, True, 0.995, 0.140383
2023/06/10 10:00:27.072, True, 0.674, 0.140993
2023/06/10 10:00:27.576, True, 0.663, 0.140764
2023/06/10 10:00:28.080, True, 0.996, 0.139773
2023/06/10 10:00:28.576, True, 0.673, 0.142519
2023/06/10 10:00:29.079, True, 0.663, 0.138399
2023/06/10 10:00:29.584, True, 0.995, 0.139467
2023/06/10 10:00:30.080, True, 0.674, 0.137865
2023/06/10 10:00:30.584, True, 0.663, 0.137865
2023/06/10 10:00:31.088, True, 0.995, 0.140230
2023/06/10 10:00:31.584, True, 0.674, 0.141146
2023/06/10 10:00:32.088, True, 0.663, 0.139162
2023/06/10 10:00:32.592, True, 0.663, 0.140230
2023/06/10 10:00:33.088, True, 0.674, 0.139620
2023/06/10 10:00:33.592, True, 0.995, 0.140993
2023/06/10 10:00:34.096, True, 0.663, 0.138399
2023/06/10 10:00:34.592, True, 0.674, 0.141222
2023/06/10 10:00:35.096, True, 0.663, 0.140154
2023/06/10 10:00:35.600, True, 0.994, 0.140154
2023/06/10 10:00:36.096, True, 0.674, 0.140612
2023/06/10 10:00:36.600, True, 0.664, 0.139391
2023/06/10 10:00:37.104, True, 0.663, 0.142290
2023/06/10 10:00:37.599, True, 0.675, 0.137407
2023/06/10 10:00:38.104, True, 0.994, 0.138705
2023/06/10 10:00:38.607, True, 0.662, 0.138552
2023/06/10 10:00:39.104, True, 0.674, 0.139849
2023/06/10 10:00:39.608, True, 0.664, 0.139849
2023/06/10 10:00:40.104, True, 1.010, 0.140078
2023/06/10 10:00:40.607, True, 0.663, 0.139010
2023/06/10 10:00:41.112, True, 0.663, 0.137560
2023/06/10 10:00:41.608, True, 0.675, 0.138857
2023/06/10 10:00:42.111, True, 0.995, 0.140688
2023/06/10 10:00:42.616, True, 0.663, 0.141146
2023/06/10 10:00:43.119, True, 0.663, 0.140841
2023/06/10 10:00:43.615, True, 1.011, 0.141299
2023/06/10 10:00:44.120, True, 0.664, 0.138476
2023/06/10 10:00:44.624, True, 0.662, 0.138857
2023/06/10 10:00:45.119, True, 0.674, 0.140078
2023/06/10 10:00:45.623, True, 0.996, 0.139086
2023/06/10 10:00:46.127, True, 0.662, 0.140459
2023/06/10 10:00:46.624, True, 0.674, 0.140536
2023/06/10 10:00:47.128, True, 0.664, 0.141375
2023/06/10 10:00:47.631, True, 0.994, 0.141375
2023/06/10 10:00:48.127, True, 0.675, 0.139849
2023/06/10 10:00:48.632, True, 0.662, 0.141146
2023/06/10 10:00:49.136, True, 0.663, 0.139849
2023/06/10 10:00:49.632, True, 1.011, 0.138323
2023/06/10 10:00:50.136, True, 0.663, 0.140002
2023/06/10 10:00:50.639, True, 0.663, 0.139925
2023/06/10 10:00:51.136, True, 0.674, 0.139391
2023/06/10 10:00:51.640, True, 0.664, 0.139315
2023/06/10 10:00:52.143, True, 0.994, 0.139391
2023/06/10 10:00:52.640, True, 0.673, 0.138170
2023/06/10 10:00:53.144, True, 0.663, 0.141299
2023/06/10 10:00:53.648, True, 0.663, 0.142901
2023/06/10 10:00:54.144, True, 1.011, 0.138170
2023/06/10 10:00:54.647, True, 0.663, 0.141146
2023/06/10 10:00:55.151, True, 0.663, 0.141680
2023/06/10 10:00:55.648, True, 0.674, 0.138705
2023/06/10 10:00:56.151, True, 0.996, 0.139162
2023/06/10 10:00:56.655, True, 0.663, 0.138552
2023/06/10 10:00:57.152, True, 0.673, 0.139925
2023/06/10 10:00:57.655, True, 0.996, 0.139315
2023/06/10 10:00:58.160, True, 0.663, 0.140078
2023/06/10 10:00:58.656, True, 0.673, 0.140307
2023/06/10 10:00:59.160, True, 0.664, 0.140688
2023/06/10 10:00:59.664, True, 0.995, 0.139696
2023/06/10 10:01:00.159, True, 0.673, 0.138857
2023/06/10 10:01:00.664, True, 0.664, 0.139315
2023/06/10 10:01:01.168, True, 0.663, 0.140841
2023/06/10 10:01:01.663, True, 0.674, 0.140536
2023/06/10 10:01:02.168, True, 0.663, 0.135424
2023/06/10 10:01:02.671, True, 0.995, 0.140536
2023/06/10 10:01:03.168, True, 0.674, 0.139544
2023/06/10 10:01:03.672, True, 0.662, 0.139925
2023/06/10 10:01:04.176, True, 0.995, 0.139696
2023/06/10 10:01:04.680, True, 0.664, 0.139010
2023/06/10 10:01:05.176, True, 0.674, 0.139162
2023/06/10 10:01:05.680, True, 0.662, 0.140154
2023/06/10 10:01:06.184, True, 0.995, 0.139849
2023/06/10 10:01:06.680, True, 0.674, 0.140536
2023/06/10 10:01:07.184, True, 0.664, 0.137942
2023/06/10 10:01:07.688, True, 0.662, 0.142367
2023/06/10 10:01:08.183, True, 1.011, 0.138857
2023/06/10 10:01:08.688, True, 0.663, 0.140764
2023/06/10 10:01:09.192, True, 0.663, 0.140612
2023/06/10 10:01:09.688, True, 0.674, 0.138399
2023/06/10 10:01:10.191, True, 0.663, 0.139849
2023/06/10 10:01:10.696, True, 0.995, 0.139620
2023/06/10 10:01:11.192, True, 0.674, 0.140154
2023/06/10 10:01:11.695, True, 0.664, 0.140841
2023/06/10 10:01:12.200, True, 0.663, 0.140154
2023/06/10 10:01:12.696, True, 1.012, 0.140307
2023/06/10 10:01:13.200, True, 0.662, 0.139696
2023/06/10 10:01:13.704, True, 0.663, 0.140002
2023/06/10 10:01:14.200, True, 0.674, 0.140002
2023/06/10 10:01:14.704, True, 0.996, 0.141680
2023/06/10 10:01:15.208, True, 0.663, 0.142977
2023/06/10 10:01:15.712, True, 0.662, 0.141299
2023/06/10 10:01:16.207, True, 0.675, 0.139315
2023/06/10 10:01:16.712, True, 0.662, 0.142214
2023/06/10 10:01:17.216, True, 0.995, 0.140688
2023/06/10 10:01:17.711, True, 0.674, 0.139315
2023/06/10 10:01:18.216, True, 0.663, 0.139391
2023/06/10 10:01:18.712, True, 1.011, 0.141527
2023/06/10 10:01:19.216, True, 0.663, 0.141222
2023/06/10 10:01:19.720, True, 0.663, 0.140383
2023/06/10 10:01:20.216, True, 0.674, 0.141909
2023/06/10 10:01:20.719, True, 0.663, 0.141222
2023/06/10 10:01:21.224, True, 0.995, 0.140230
2023/06/10 10:01:21.720, True, 0.674, 0.140612
2023/06/10 10:01:22.223, True, 0.663, 0.142138
2023/06/10 10:01:22.728, True, 0.663, 0.140383
2023/06/10 10:01:23.224, True, 1.011, 0.141451
2023/06/10 10:01:23.728, True, 0.663, 0.141833
2023/06/10 10:01:24.231, True, 0.663, 0.141604
2023/06/10 10:01:24.736, True, 0.663, 0.142061
2023/06/10 10:01:25.232, True, 1.011, 0.143969
2023/06/10 10:01:25.736, True, 0.663, 0.141985
2023/06/10 10:01:26.239, True, 0.663, 0.142061
2023/06/10 10:01:26.736, True, 0.674, 0.142214
2023/06/10 10:01:27.240, True, 0.663, 0.142748
2023/06/10 10:01:27.744, True, 0.995, 0.141909
2023/06/10 10:01:28.239, True, 0.674, 0.143130
2023/06/10 10:01:28.744, True, 0.663, 0.143816
2023/06/10 10:01:29.248, True, 0.664, 0.144884
2023/06/10 10:01:29.744, True, 0.673, 0.143282
2023/06/10 10:01:30.248, True, 0.995, 0.145418
2023/06/10 10:01:30.752, True, 0.663, 0.144350
2023/06/10 10:01:31.255, True, 0.663, 0.145037
2023/06/10 10:01:31.752, True, 0.674, 0.145495
2023/06/10 10:01:32.256, True, 0.663, 0.144656
2023/06/10 10:01:32.759, True, 0.995, 0.146029
2023/06/10 10:01:33.255, True, 0.674, 0.147097
2023/06/10 10:01:33.760, True, 0.663, 0.147173
2023/06/10 10:01:34.264, True, 0.663, 0.147173
2023/06/10 10:01:34.760, True, 1.011, 0.148470
2023/06/10 10:01:35.264, True, 0.663, 0.146410
2023/06/10 10:01:35.768, True, 0.664, 0.149767
2023/06/10 10:01:36.264, True, 0.673, 0.146487
2023/06/10 10:01:36.768, True, 0.664, 0.148775
2023/06/10 10:01:37.272, True, 0.663, 0.148547
2023/06/10 10:01:37.776, True, 0.663, 0.149767
2023/06/10 10:01:38.272, True, 1.011, 0.146563
2023/06/10 10:01:38.776, True, 0.663, 0.149233
2023/06/10 10:01:39.280, True, 0.663, 0.149386
2023/06/10 10:01:39.776, True, 0.674, 0.150607
2023/06/10 10:01:40.280, True, 0.663, 0.149386
2023/06/10 10:01:40.784, True, 0.664, 0.150530
2023/06/10 10:01:41.288, True, 0.662, 0.150759
2023/06/10 10:01:41.784, True, 0.674, 0.149844
2023/06/10 10:01:42.288, True, 0.995, 0.149462
2023/06/10 10:01:42.792, True, 0.663, 0.150454
2023/06/10 10:01:43.288, True, 0.674, 0.152209
2023/06/10 10:01:43.792, True, 0.663, 0.148852
2023/06/10 10:01:44.296, True, 0.663, 0.150988
2023/06/10 10:01:44.792, True, 1.011, 0.152361
2023/06/10 10:01:45.296, True, 0.663, 0.151446
2023/06/10 10:01:45.792, True, 0.674, 0.150530
2023/06/10 10:01:46.296, True, 0.663, 0.150301
2023/06/10 10:01:46.800, True, 0.663, 0.151980
2023/06/10 10:01:47.296, True, 1.011, 0.151751
2023/06/10 10:01:47.800, True, 0.663, 0.150607
2023/06/10 10:01:48.304, True, 0.663, 0.152972
2023/06/10 10:01:48.799, True, 0.674, 0.150378
2023/06/10 10:01:49.304, True, 0.995, 0.149767
2023/06/10 10:01:49.807, True, 0.663, 0.152132
2023/06/10 10:01:50.304, True, 0.674, 0.150072
2023/06/10 10:01:50.808, True, 0.664, 0.151751
2023/06/10 10:01:51.312, True, 0.662, 0.153658
2023/06/10 10:01:51.808, True, 0.674, 0.153887
2023/06/10 10:01:52.312, True, 0.995, 0.151369
2023/06/10 10:01:52.808, True, 0.675, 0.152743
2023/06/10 10:01:53.312, True, 0.662, 0.152743
2023/06/10 10:01:53.816, True, 0.663, 0.151141
2023/06/10 10:01:54.320, True, 0.663, 0.151751
2023/06/10 10:01:54.816, True, 0.674, 0.149996
2023/06/10 10:01:55.320, True, 0.997, 0.151904
2023/06/10 10:01:55.823, True, 0.662, 0.153658
2023/06/10 10:01:56.328, True, 0.664, 0.153277
2023/06/10 10:01:56.823, True, 0.673, 0.151904
2023/06/10 10:01:57.328, True, 0.663, 0.154116
2023/06/10 10:01:57.824, True, 0.674, 0.151522
2023/06/10 10:01:58.328, True, 0.663, 0.153582
2023/06/10 10:01:58.832, True, 0.995, 0.152819
2023/06/10 10:01:59.328, True, 0.674, 0.156329
2023/06/10 10:01:59.832, True, 0.663, 0.152972
2023/06/10 10:02:00.336, True, 0.663, 0.152972
2023/06/10 10:02:00.840, True, 0.663, 0.152819
2023/06/10 10:02:01.336, True, 0.674, 0.152361
2023/06/10 10:02:01.840, True, 0.663, 0.153658
2023/06/10 10:02:02.344, True, 0.663, 0.153887
2023/06/10 10:02:02.839, True, 0.675, 0.155032
2023/06/10 10:02:03.344, True, 0.994, 0.156176
2023/06/10 10:02:03.848, True, 0.663, 0.152361
2023/06/10 10:02:04.344, True, 0.674, 0.153887
2023/06/10 10:02:04.848, True, 0.663, 0.153353
2023/06/10 10:02:05.352, True, 0.663, 0.154879
2023/06/10 10:02:05.848, True, 1.011, 0.153887
2023/06/10 10:02:06.352, True, 0.663, 0.153887
2023/06/10 10:02:06.856, True, 0.332, 0.155032
2023/06/10 10:02:07.352, True, 0.674, 0.153277
2023/06/10 10:02:07.856, True, 0.996, 0.154269
2023/06/10 10:02:08.360, True, 0.662, 0.154269
2023/06/10 10:02:08.856, True, 0.674, 0.152285
2023/06/10 10:02:09.360, True, 0.663, 0.153811
2023/06/10 10:02:09.864, True, 0.663, 0.152743
2023/06/10 10:02:10.360, True, 0.674, 0.153658
2023/06/10 10:02:10.864, True, 0.994, 0.156329
2023/06/10 10:02:11.368, True, 0.663, 0.153277
2023/06/10 10:02:11.864, True, 0.674, 0.154726
2023/06/10 10:02:12.368, True, 0.663, 0.156481
2023/06/10 10:02:12.872, True, 0.663, 0.155413
2023/06/10 10:02:13.368, True, 1.011, 0.154498
2023/06/10 10:02:13.871, True, 0.663, 0.155108
2023/06/10 10:02:14.376, True, 0.663, 0.154803
2023/06/10 10:02:14.872, True, 0.674, 0.154955
2023/06/10 10:02:15.376, True, 0.663, 0.155261
2023/06/10 10:02:15.880, True, 0.663, 0.154803
2023/06/10 10:02:16.376, True, 0.674, 0.154040
2023/06/10 10:02:16.879, True, 0.663, 0.155947
2023/06/10 10:02:17.383, True, 0.664, 0.155947
2023/06/10 10:02:17.880, True, 0.673, 0.152895
2023/06/10 10:02:18.383, True, 0.995, 0.153201
2023/06/10 10:02:18.888, True, 0.663, 0.156176
2023/06/10 10:02:19.384, True, 0.674, 0.154421
2023/06/10 10:02:19.887, True, 0.663, 0.156252
2023/06/10 10:02:20.391, True, 0.663, 0.153429
2023/06/10 10:02:20.887, True, 1.011, 0.154726
2023/06/10 10:02:21.392, True, 0.663, 0.154574
2023/06/10 10:02:21.895, True, 0.663, 0.156939
2023/06/10 10:02:22.391, True, 0.674, 0.152361
2023/06/10 10:02:22.895, True, 0.663, 0.157473
2023/06/10 10:02:23.399, True, 0.663, 0.153658
2023/06/10 10:02:23.895, True, 0.674, 0.153658
2023/06/10 10:02:24.399, True, 0.663, 0.154955
2023/06/10 10:02:24.904, True, 0.664, 0.154879
2023/06/10 10:02:25.399, True, 1.009, 0.153811
2023/06/10 10:02:25.903, True, 0.663, 0.156939
2023/06/10 10:02:26.408, True, 0.664, 0.153506
2023/06/10 10:02:26.904, True, 0.674, 0.155413
2023/06/10 10:02:27.408, True, 0.662, 0.153201
2023/06/10 10:02:27.912, True, 0.663, 0.154574
2023/06/10 10:02:28.408, True, 0.674, 0.154498
2023/06/10 10:02:28.912, True, 0.664, 0.156252
2023/06/10 10:02:29.415, True, 0.663, 0.155795
2023/06/10 10:02:29.912, True, 0.674, 0.155337
2023/06/10 10:02:30.416, True, 0.995, 0.153735
2023/06/10 10:02:30.919, True, 0.663, 0.153429
2023/06/10 10:02:31.416, True, 0.675, 0.156939
2023/06/10 10:02:31.919, True, 0.663, 0.156176
2023/06/10 10:02:32.424, True, 0.664, 0.154345
2023/06/10 10:02:32.928, True, 0.662, 0.154040
2023/06/10 10:02:33.423, True, 0.674, 0.154498
2023/06/10 10:02:33.927, True, 0.995, 0.151904
2023/06/10 10:02:34.432, True, 0.663, 0.155032
2023/06/10 10:02:34.936, True, 0.663, 0.154345
2023/06/10 10:02:35.432, True, 0.674, 0.155795
2023/06/10 10:02:35.936, True, 0.663, 0.154040
2023/06/10 10:02:36.432, True, 0.674, 0.156252
2023/06/10 10:02:36.936, True, 0.663, 0.156329
2023/06/10 10:02:37.439, True, 0.995, 0.154116
2023/06/10 10:02:37.936, True, 0.674, 0.156786
2023/06/10 10:02:38.439, True, 0.663, 0.154116
2023/06/10 10:02:38.943, True, 0.663, 0.151675
2023/06/10 10:02:39.439, True, 0.674, 0.154192
2023/06/10 10:02:39.943, True, 0.664, 0.154192
2023/06/10 10:02:40.448, True, 0.662, 0.154955
2023/06/10 10:02:40.944, True, 0.674, 0.154955
2023/06/10 10:02:41.447, True, 0.995, 0.152743
2023/06/10 10:02:41.952, True, 0.663, 0.153811
2023/06/10 10:02:42.456, True, 0.663, 0.155337
2023/06/10 10:02:42.952, True, 0.674, 0.154345
2023/06/10 10:02:43.456, True, 0.663, 0.154421
2023/06/10 10:02:43.951, True, 0.674, 0.151141
2023/06/10 10:02:44.456, True, 0.663, 0.153964
2023/06/10 10:02:44.960, True, 0.664, 0.153658
2023/06/10 10:02:45.464, True, 0.662, 0.155947
2023/06/10 10:02:45.960, True, 0.674, 0.151980
2023/06/10 10:02:46.463, True, 0.663, 0.154726
2023/06/10 10:02:46.967, True, 0.995, 0.156863
2023/06/10 10:02:47.472, True, 0.664, 0.154498
2023/06/10 10:02:47.968, True, 0.674, 0.155261
2023/06/10 10:02:48.471, True, 0.663, 0.155032
2023/06/10 10:02:48.976, True, 0.663, 0.155261
2023/06/10 10:02:49.471, True, 0.674, 0.154421
2023/06/10 10:02:49.975, True, 0.663, 0.155642
2023/06/10 10:02:50.480, True, 0.663, 0.154803
2023/06/10 10:02:50.976, True, 0.674, 0.155032
2023/06/10 10:02:51.479, True, 0.663, 0.153201
2023/06/10 10:02:51.975, True, 0.674, 0.154269
2023/06/10 10:02:52.480, True, 0.664, 0.153811
2023/06/10 10:02:52.983, True, 0.663, 0.154574
2023/06/10 10:02:53.479, True, 0.674, 0.152590
2023/06/10 10:02:53.983, True, 0.996, 0.154116
2023/06/10 10:02:54.487, True, 0.663, 0.154421
2023/06/10 10:02:54.983, True, 0.674, 0.153353
2023/06/10 10:02:55.488, True, 0.663, 0.152972
2023/06/10 10:02:55.984, True, 0.673, 0.153353
2023/06/10 10:02:56.487, True, 0.663, 0.153582
2023/06/10 10:02:56.992, True, 0.663, 0.155337
2023/06/10 10:02:57.488, True, 0.674, 0.154192
2023/06/10 10:02:57.992, True, 0.663, 0.155337
2023/06/10 10:02:58.496, True, 0.664, 0.152743
2023/06/10 10:02:58.992, True, 0.673, 0.154955
2023/06/10 10:02:59.496, True, 0.995, 0.154421
2023/06/10 10:02:59.000, True, 0.663, 0.155261
2023/06/10 10:03:00.495, True, 0.674, 0.154116
2023/06/10 10:03:00.000, True, 0.663, 0.153735
2023/06/10 10:03:01.503, True, 0.663, 0.154879
2023/06/10 10:03:02.007, True, 0.663, 0.155337
2023/06/10 10:03:02.503, True, 0.674, 0.155947
2023/06/10 10:03:03.008, True, 0.663, 0.155032
2023/06/10 10:03:03.511, True, 0.663, 0.156786
2023/06/10 10:03:04.008, True, 0.674, 0.151369
2023/06/10 10:03:04.511, True, 0.995, 0.153964
2023/06/10 10:03:05.015, True, 0.663, 0.154345
2023/06/10 10:03:05.511, True, 0.674, 0.153124
2023/06/10 10:03:06.015, True, 0.663, 0.153506
2023/06/10 10:03:06.519, True, 0.663, 0.153964
2023/06/10 10:03:07.015, True, 0.674, 0.154574
2023/06/10 10:03:07.519, True, 0.664, 0.153887
2023/06/10 10:03:08.023, True, 0.663, 0.153582
2023/06/10 10:03:08.527, True, 0.663, 0.155032
2023/06/10 10:03:09.023, True, 1.011, 0.156176
2023/06/10 10:03:09.528, True, 0.663, 0.154879
2023/06/10 10:03:10.032, True, 0.663, 0.155566
2023/06/10 10:03:10.528, True, 0.674, 0.153658
2023/06/10 10:03:11.031, True, 0.663, 0.153124
2023/06/10 10:03:11.535, True, 0.995, 0.153124
2023/06/10 10:03:12.031, True, 0.674, 0.154421
2023/06/10 10:03:12.535, True, 0.663, 0.152590
2023/06/10 10:03:13.039, True, 0.663, 0.154498
2023/06/10 10:03:13.536, True, 0.674, 0.154269
2023/06/10 10:03:14.039, True, 0.663, 0.155413
2023/06/10 10:03:14.543, True, 0.663, 0.154040
2023/06/10 10:03:15.047, True, 0.663, 0.155947
2023/06/10 10:03:15.544, True, 0.674, 0.154803
2023/06/10 10:03:16.047, True, 0.664, 0.152667
2023/06/10 10:03:16.551, True, 0.662, 0.152590
2023/06/10 10:03:17.047, True, 0.674, 0.153124
2023/06/10 10:03:17.551, True, 0.663, 0.154345
2023/06/10 10:03:18.055, True, 0.663, 0.153048
2023/06/10 10:03:18.551, True, 0.674, 0.154192
2023/06/10 10:03:19.055, True, 0.663, 0.153582
2023/06/10 10:03:19.560, True, 0.663, 0.151446
2023/06/10 10:03:20.056, True, 0.674, 0.152132
2023/06/10 10:03:20.559, True, 0.665, 0.152590
2023/06/10 10:03:21.063, True, 0.993, 0.153201
2023/06/10 10:03:21.559, True, 0.674, 0.153658
2023/06/10 10:03:22.063, True, 0.331, 0.152514
2023/06/10 10:03:22.567, True, 0.995, 0.153124
2023/06/10 10:03:23.063, True, 0.674, 0.153124
2023/06/10 10:03:23.567, True, 0.663, 0.154345
2023/06/10 10:03:24.071, True, 0.663, 0.152667
2023/06/10 10:03:24.567, True, 0.674, 0.151675
2023/06/10 10:03:25.071, True, 0.664, 0.150835
2023/06/10 10:03:25.575, True, 0.663, 0.153506
2023/06/10 10:03:26.071, True, 0.674, 0.153353
2023/06/10 10:03:26.575, True, 0.663, 0.152132
2023/06/10 10:03:27.079, True, 0.663, 0.152972
2023/06/10 10:03:27.575, True, 0.674, 0.152285
2023/06/10 10:03:28.079, True, 0.663, 0.155184
2023/06/10 10:03:28.583, True, 0.663, 0.154574
2023/06/10 10:03:29.079, True, 0.674, 0.152056
2023/06/10 10:03:29.583, True, 0.663, 0.153658
2023/06/10 10:03:30.087, True, 0.663, 0.151064
2023/06/10 10:03:30.583, True, 0.674, 0.154803
2023/06/10 10:03:31.087, True, 0.663, 0.152895
2023/06/10 10:03:31.591, True, 0.663, 0.152132
2023/06/10 10:03:32.087, True, 0.674, 0.155032
2023/06/10 10:03:32.591, True, 0.995, 0.154574
2023/06/10 10:03:33.095, True, 0.663, 0.153735
2023/06/10 10:03:33.591, True, 0.674, 0.153201
2023/06/10 10:03:34.095, True, 0.663, 0.154574
2023/06/10 10:03:34.591, True, 0.674, 0.153658
2023/06/10 10:03:35.095, True, 0.663, 0.153658
2023/06/10 10:03:35.599, True, 0.663, 0.154192
2023/06/10 10:03:36.095, True, 0.674, 0.155871
2023/06/10 10:03:36.599, True, 0.663, 0.153429
2023/06/10 10:03:37.103, True, 0.663, 0.153506
2023/06/10 10:03:37.599, True, 0.674, 0.151522
2023/06/10 10:03:38.103, True, 0.663, 0.151980
2023/06/10 10:03:38.607, True, 0.663, 0.154040
2023/06/10 10:03:39.103, True, 0.674, 0.154192
2023/06/10 10:03:39.607, True, 0.663, 0.152056
2023/06/10 10:03:40.103, True, 0.674, 0.153735
2023/06/10 10:03:40.607, True, 0.663, 0.153048
2023/06/10 10:03:41.111, True, 0.663, 0.153353
2023/06/10 10:03:41.615, True, 0.663, 0.152438
2023/06/10 10:03:42.111, True, 0.674, 0.154345
2023/06/10 10:03:42.615, True, 0.663, 0.155566
2023/06/10 10:03:43.119, True, 0.995, 0.149920
2023/06/10 10:03:43.615, True, 0.674, 0.153048
2023/06/10 10:03:44.119, True, 0.663, 0.151217
2023/06/10 10:03:44.615, True, 0.674, 0.154421
2023/06/10 10:03:45.119, True, 0.663, 0.151522
2023/06/10 10:03:45.623, True, 0.663, 0.154192
2023/06/10 10:03:46.119, True, 0.674, 0.152590
2023/06/10 10:03:46.623, True, 0.663, 0.152590
2023/06/10 10:03:47.127, True, 0.664, 0.153277
2023/06/10 10:03:47.623, True, 0.673, 0.152438
2023/06/10 10:03:48.127, True, 0.663, 0.153201
2023/06/10 10:03:48.631, True, 0.663, 0.151369
2023/06/10 10:03:49.127, True, 0.674, 0.151827
2023/06/10 10:03:49.631, True, 0.663, 0.152285
2023/06/10 10:03:50.135, True, 0.664, 0.153506
2023/06/10 10:03:50.631, True, 0.673, 0.153735
2023/06/10 10:03:51.135, True, 0.664, 0.152590
2023/06/10 10:03:51.639, True, 0.663, 0.151369
2023/06/10 10:03:52.135, True, 0.674, 0.155261
2023/06/10 10:03:52.639, True, 0.663, 0.151446
2023/06/10 10:03:53.143, True, 0.663, 0.154116
2023/06/10 10:03:53.639, True, 0.674, 0.152438
2023/06/10 10:03:54.143, True, 0.663, 0.154269
2023/06/10 10:03:54.647, True, 0.663, 0.152590
2023/06/10 10:03:55.143, True, 0.674, 0.151827
2023/06/10 10:03:55.647, True, 0.663, 0.150149
2023/06/10 10:03:56.151, True, 0.663, 0.151751
2023/06/10 10:03:56.655, True, 0.664, 0.150225
2023/06/10 10:03:57.151, True, 0.673, 0.153048
2023/06/10 10:03:57.655, True, 0.664, 0.153658
2023/06/10 10:03:58.159, True, 0.994, 0.152056
2023/06/10 10:03:58.655, True, 0.675, 0.152972
2023/06/10 10:03:59.159, True, 0.663, 0.152056
2023/06/10 10:03:59.663, True, 0.663, 0.151217
2023/06/10 10:04:00.159, True, 0.673, 0.152285
2023/06/10 10:04:00.663, True, 0.664, 0.149386
2023/06/10 10:04:01.167, True, 0.663, 0.151446
2023/06/10 10:04:01.663, True, 0.673, 0.151598
2023/06/10 10:04:02.167, True, 0.663, 0.152285
2023/06/10 10:04:02.671, True, 0.663, 0.150530
2023/06/10 10:04:03.167, True, 0.675, 0.152514
2023/06/10 10:04:03.671, True, 0.662, 0.152438
2023/06/10 10:04:04.175, True, 0.663, 0.153429
2023/06/10 10:04:04.679, True, 0.995, 0.153277
2023/06/10 10:04:05.175, True, 0.674, 0.154421
2023/06/10 10:04:05.679, True, 0.662, 0.153048
2023/06/10 10:04:06.175, True, 0.674, 0.154192
2023/06/10 10:04:06.679, True, 0.663, 0.151446
2023/06/10 10:04:07.183, True, 0.663, 0.152285
2023/06/10 10:04:07.679, True, 0.674, 0.150988
2023/06/10 10:04:08.183, True, 0.663, 0.152438
2023/06/10 10:04:08.687, True, 0.995, 0.151369
2023/06/10 10:04:09.183, True, 0.674, 0.153124
2023/06/10 10:04:09.687, True, 0.663, 0.152743
2023/06/10 10:04:10.191, True, 0.663, 0.152209
2023/06/10 10:04:10.695, True, 0.663, 0.153048
2023/06/10 10:04:11.191, True, 0.674, 0.153277
2023/06/10 10:04:11.695, True, 0.663, 0.152667